Change the Weather History Date:

Friday, February 1, 2013

  Actual Average Record
Temperature  
Mean Temperature 28 °F -  
Max Temperature 33 °F 35 °F 59 °F (1988)
Min Temperature 23 °F 17 °F -13 °F (1935)
Degree Days  
Heating Degree Days 37    
Moisture  
Dew Point 7 °F    
Average Humidity 41    
Maximum Humidity 59    
Minimum Humidity 31    
Precipitation  
Precipitation 0.00 in - - ()
Sea Level Pressure  
Sea Level Pressure 29.81 in    
Wind  
Wind Speed 16 mph (West)    
Max Wind Speed 22 mph    
Max Gust Speed 30 mph    
Visibility 10 miles    
Events      
Averages and records for this station are not official NWS values.
T = Trace of Precipitation, MM = Missing Value Source: NWS Daily Summary

Daily Weather History Graph

Daily Weather History Graph

Search for Another Location

Airport or City:

Trip Planner

Search our weather history database for the weather conditions in past years. The results will help you decide how hot, cold, wet, or windy it might be!

Date:

Astronomy

Feb. 01, 2013 Rise Set
Actual Time 6:58 AM EST 4:58 PM EST
Civil Twilight 6:28 AM EST 5:28 PM EST
Nautical Twilight 5:54 AM EST 6:01 PM EST
Astronomical Twilight 5:21 AM EST 6:35 PM EST
Moon 11:12 PM EST (2/1) 9:20 AM EST (2/1)
Length of Visible Light 10h 59m
Length of Day
9h 59m
Waning Gibbous, 70% of the Moon is Illuminated
Feb 1
Waning Gibbous
Feb 3
Last Quarter
Feb 10
New
Feb 17
First Quarter
Feb 25
Full

Hourly Weather History & Observations

Time (EST) Temp. Windchill Dew Point Humidity Pressure Visibility Wind Dir Wind Speed Gust Speed Precip Events Conditions
12:54 AM 30.2 °F 18.9 °F 15.8 °F 55% 29.59 in 10.0 mi West 16.1 mph 28.8 mph N/A   Partly Cloudy
1:54 AM 28.4 °F 15.4 °F 15.8 °F 59% 29.61 in 10.0 mi WSW 19.6 mph 29.9 mph N/A   Clear
2:54 AM 28.4 °F 14.7 °F 12.2 °F 51% 29.62 in 10.0 mi West 21.9 mph 27.6 mph N/A   Clear
3:54 AM 28.9 °F 16.9 °F 12.0 °F 49% 29.64 in 10.0 mi West 17.3 mph 27.6 mph N/A   Clear
4:54 AM 28.4 °F 16.2 °F 12.2 °F 51% 29.66 in 10.0 mi West 17.3 mph 21.9 mph N/A   Clear
5:54 AM 28.4 °F 16.6 °F 10.4 °F 47% 29.67 in 10.0 mi West 16.1 mph 26.5 mph N/A   Clear
6:54 AM 28.0 °F 15.3 °F 10.0 °F 47% 29.70 in 10.0 mi WSW 18.4 mph 23.0 mph N/A   Clear
7:54 AM 28.0 °F 16.5 °F 10.0 °F 47% 29.74 in 10.0 mi WSW 15.0 mph 24.2 mph N/A   Clear
8:54 AM 30.2 °F 18.5 °F 8.6 °F 40% 29.76 in 10.0 mi WSW 17.3 mph 29.9 mph N/A   Clear
9:54 AM 30.9 °F 18.7 °F 7.0 °F 37% 29.79 in 10.0 mi West 19.6 mph 28.8 mph N/A   Partly Cloudy
10:54 AM 32.0 °F 22.1 °F 5.0 °F 32% 29.79 in 10.0 mi West 13.8 mph 26.5 mph N/A   Partly Cloudy
11:54 AM 33.8 °F 25.8 °F 6.8 °F 32% 29.77 in 10.0 mi West 10.4 mph 19.6 mph N/A   Clear
12:54 PM 33.1 °F 22.2 °F 5.0 °F 31% 29.76 in 10.0 mi West 17.3 mph 27.6 mph N/A   Clear
1:54 PM 30.9 °F 19.8 °F 3.9 °F 32% 29.78 in 10.0 mi WNW 16.1 mph 24.2 mph N/A   Scattered Clouds
2:54 PM 33.1 °F 23.4 °F 5.0 °F 31% 29.78 in 10.0 mi NNW 13.8 mph 20.7 mph N/A   Mostly Cloudy
3:54 PM 30.9 °F 22.8 °F 5.0 °F 33% 29.82 in 10.0 mi NW 9.2 mph 16.1 mph N/A   Overcast
4:54 PM 30.0 °F 20.5 °F 5.0 °F 35% 29.87 in 10.0 mi West 11.5 mph 19.6 mph N/A   Overcast
5:54 PM 28.0 °F 17.0 °F 5.0 °F 38% 29.92 in 10.0 mi WNW 13.8 mph 24.2 mph N/A   Scattered Clouds
6:54 PM 26.1 °F 15.0 °F 3.0 °F 37% 29.98 in 10.0 mi NW 12.7 mph 20.7 mph N/A   Clear
7:54 PM 25.0 °F 15.5 °F 3.9 °F 41% 30.01 in 10.0 mi WNW 9.2 mph 17.3 mph N/A   Clear
8:54 PM 25.0 °F 16.3 °F 3.0 °F 39% 30.03 in 10.0 mi WNW 8.1 mph - N/A   Partly Cloudy
9:54 PM 24.1 °F 13.7 °F 3.9 °F 42% 30.04 in 10.0 mi West 10.4 mph - N/A   Scattered Clouds
10:54 PM 23.0 °F 13.9 °F 3.0 °F 42% 30.06 in 10.0 mi West 8.1 mph - N/A   Clear
11:54 PM 23.0 °F 10.1 °F 1.0 °F 39% 30.08 in 10.0 mi West 15.0 mph 24.2 mph N/A   Clear